星链-3315 (STARLINK-3315 )

导读

STARLINK-3315是美国太空探索技术公司(SpaceX)星链星座的成员,于北京时间2022年1月6日发射入轨。星链计划是全球低轨卫星互联网项目,旨在为全球提供高速宽带互联网服务。STARLINK-3315作为量产型低轨卫星,采用平板设计搭载通信载荷,配备氪工质霍尔推进器,具备自主避撞能力,设计寿命约5至7年,退役后将坠入大气层烧毁。截至2026年,卫星已在轨运行超4年,目前仍在近地轨道正常提供卫星互联网服务。

Basic Information
目录编号:
50848
目录名称:
STARLINK-3315
国际标识:
2022-001AX
轨道中心:
EARTH
卫星名称:
星链-3315
卫星全名:
星链-3315 (STARLINK-3315 )
卫星状态:
在轨 (已飞行1702 天)
发射日期:
2022-01-06 UTC
国别 :
美国 (US)
星等 :
--
Orbit Information
数据来源 国际轨道数据 AOE轨道数据
星历时间 2026-09-04T05:03:04+0800
9小时前
查看轨道信息
2026-08-28T22:00:00+0800
6天前
查看轨道信息
半长轴 6840.839km 6837.83km
偏心率 0.0001395 0.0000644
轨道倾角 53.160° 53.160°
近地点辐角 92.773° 87.478°
升交点赤经 87.778° 117.227°
平近点角 267.343° 33.954°
近地点 461.747km 459.252km
远地点 463.657km 460.134km
周期 93.848分钟 93.786分钟
每日圈数 15.344007 15.354136
Detailed Information
固有亮度:
5
最大亮度:
2.5
卫星平台:
Starlink v1.5
覆盖范围:
全球
运营商:
太空探索技术公司
运营商所在国:
美国
制造商(研发单位):
太空探索技术公司
制造商所在国:
美国
使用方式:
暂无
Satellite Introduction
星链(Starlink)计划是由太空探索技术公司(SpaceX)提出的一个巨型低轨卫星互联网星座项目,计划在2019年至2024年间在太空搭建由约1.2万颗卫星组成的“星链”网络,其中1584颗将部署在地球上空550千米处的近地轨道,并从2020年开始工作。该卫星仍在工作。
2D Orbit Map
3D Orbit Map
Orbit Altitude Analysis Chart
Orbit Inclination Analysis Chart
Orbit Comprehensive Analysis Chart
View Comprehensive Chart
Conjunction Data List
Event ID Objects TCA Miss Dist (km) Collision Risk Probability Collision Risk Index (CRI) Action
CDM_260904-230905-084805-254221
2026-09-04T
23:09:29+0000
0.109 km
中距离
9.574838E-4 高风险 0.95
CDM_260903-201105-084806-692721
2026-09-03T
20:11:30+0000
0.159 km
中距离
9.003217E-4 高风险 0.94
CDM_260903-134305-084806-816921
2026-09-03T
13:43:04+0000
0.407 km
远距离
2.067698E-4 高风险 0.81
CDM_260904-205405-084806-044321
2026-09-04T
20:54:29+0000
0.343 km
远距离
1.586116E-4 高风险 0.79
CDM_260903-110905-084805-230022
2026-09-03T
11:09:51+0000
0.669 km
远距离
6.353203E-5 中风险 0.71
CDM_260903-142305-084806-126023
2026-09-03T
14:23:55+0000
0.690 km
远距离
1.25687E-5 中风险 0.57
CDM_260903-204505-084806-816921
2026-09-03T
20:45:07+0000
1.086 km
极远距离
1.182386E-5 中风险 0.56
CDM_260905-004305-084805-254221
2026-09-05T
00:43:16+0000
1.064 km
极远距离
1.079243E-5 中风险 0.56
CDM_260903-163805-084805-230021
2026-09-03T
16:38:06+0000
1.291 km
极远距离
7.111564E-6 低风险 0.52
CDM_260904-213505-084805-254221
2026-09-04T
21:35:41+0000
1.485 km
极远距离
3.519412E-6 低风险 0.46